Time,TemperatureF,DewpointF,PressureIn,WindDirection,WindDirectionDegrees,WindSpeedMPH,WindSpeedGustMPH,Humidity,HourlyPrecipIn,Conditions,Clouds,dailyrainin,SolarRadiationWatts/m^2,SoftwareType,DateUTC
2017-12-16 00:05:00,55.4,-44.0,30.04,North,5,0.0,5.0,1,0.00,,,0.00,0,weatherlink.com 1.10,2017-12-16 08:05:00,
2017-12-16 00:20:00,55.1,-45.0,30.03,North,5,0.0,4.0,1,0.00,,,0.00,0,weatherlink.com 1.10,2017-12-16 08:20:00,
2017-12-16 00:35:00,55.0,-45.0,30.03,North,5,5.0,11.0,1,0.00,,,0.00,0,weatherlink.com 1.10,2017-12-16 08:35:00,
2017-12-16 00:50:00,55.0,-45.0,30.03,North,5,0.0,9.0,1,0.00,,,0.00,0,weatherlink.com 1.10,2017-12-16 08:50:00,
2017-12-16 01:05:00,54.9,-45.0,30.02,North,5,2.0,8.0,1,0.00,,,0.00,0,weatherlink.com 1.10,2017-12-16 09:05:00,
2017-12-16 01:20:00,54.9,-45.0,30.01,North,5,0.0,9.0,1,0.00,,,0.00,0,weatherlink.com 1.10,2017-12-16 09:20:00,
2017-12-16 01:35:00,54.9,-45.0,30.01,North,5,0.0,6.0,1,0.00,,,0.00,0,weatherlink.com 1.10,2017-12-16 09:35:00,
2017-12-16 01:50:00,54.7,-45.0,30.00,North,5,0.0,10.0,1,0.00,,,0.00,0,weatherlink.com 1.10,2017-12-16 09:50:00,
2017-12-16 02:05:00,54.4,-45.0,30.00,North,5,0.0,6.0,1,0.00,,,0.00,0,weatherlink.com 1.10,2017-12-16 10:05:00,
2017-12-16 02:20:00,54.2,-45.0,29.99,North,5,3.0,13.0,1,0.00,,,0.00,0,weatherlink.com 1.10,2017-12-16 10:20:00,
2017-12-16 02:35:00,54.2,-45.0,29.98,North,5,6.0,13.0,1,0.00,,,0.00,0,weatherlink.com 1.10,2017-12-16 10:35:00,
2017-12-16 02:50:00,54.3,-45.0,29.98,North,5,2.0,15.0,1,0.00,,,0.00,0,weatherlink.com 1.10,2017-12-16 10:50:00,
2017-12-16 03:07:00,54.2,-45.0,29.98,North,5,5.0,14.0,1,0.00,,,0.00,0,weatherlink.com 1.10,2017-12-16 11:07:00,
2017-12-16 03:21:00,54.2,-45.0,29.98,North,5,6.0,10.0,1,0.00,,,0.00,0,weatherlink.com 1.10,2017-12-16 11:21:00,
2017-12-16 03:37:00,54.0,-45.0,29.97,North,5,12.0,15.0,1,0.00,,,0.00,0,weatherlink.com 1.10,2017-12-16 11:37:00,
2017-12-16 03:51:00,54.0,-45.0,29.97,North,5,1.0,12.0,1,0.00,,,0.00,0,weatherlink.com 1.10,2017-12-16 11:51:00,
2017-12-16 04:06:00,53.9,-45.0,29.96,North,5,2.0,10.0,1,0.00,,,0.00,0,weatherlink.com 1.10,2017-12-16 12:06:00,
2017-12-16 04:21:00,53.9,-45.0,29.97,North,5,2.0,8.0,1,0.00,,,0.00,0,weatherlink.com 1.10,2017-12-16 12:21:00,
2017-12-16 04:36:00,53.7,-46.0,29.96,North,5,1.0,11.0,1,0.00,,,0.00,0,weatherlink.com 1.10,2017-12-16 12:36:00,
2017-12-16 04:51:00,53.6,-46.0,29.95,North,5,1.0,9.0,1,0.00,,,0.00,0,weatherlink.com 1.10,2017-12-16 12:51:00,
2017-12-16 05:07:00,53.4,-46.0,29.95,North,5,2.0,12.0,1,0.00,,,0.00,0,weatherlink.com 1.10,2017-12-16 13:07:00,
2017-12-16 05:21:00,53.3,-46.0,29.95,North,5,0.0,11.0,1,0.00,,,0.00,0,weatherlink.com 1.10,2017-12-16 13:21:00,
2017-12-16 05:37:00,53.2,-46.0,29.96,North,5,3.0,8.0,1,0.00,,,0.00,0,weatherlink.com 1.10,2017-12-16 13:37:00,
2017-12-16 05:51:00,53.2,-46.0,29.95,North,5,0.0,6.0,1,0.00,,,0.00,0,weatherlink.com 1.10,2017-12-16 13:51:00,
2017-12-16 06:06:00,53.0,-46.0,29.95,North,5,2.0,5.0,1,0.00,,,0.00,0,weatherlink.com 1.10,2017-12-16 14:06:00,
2017-12-16 06:23:00,52.7,-46.0,29.95,North,5,0.0,5.0,1,0.00,,,0.00,0,weatherlink.com 1.10,2017-12-16 14:23:00,
2017-12-16 06:37:00,52.6,-46.0,29.95,North,360,2.0,4.0,1,0.00,,,0.00,0,weatherlink.com 1.10,2017-12-16 14:37:00,
2017-12-16 06:52:00,52.5,-46.0,29.95,North,5,1.0,9.0,1,0.00,,,0.00,0,weatherlink.com 1.10,2017-12-16 14:52:00,
2017-12-16 07:07:00,52.8,-46.0,29.94,North,5,3.0,8.0,1,0.00,,,0.00,0,weatherlink.com 1.10,2017-12-16 15:07:00,
2017-12-16 07:22:00,52.8,-46.0,29.94,North,360,3.0,9.0,1,0.00,,,0.00,12,weatherlink.com 1.10,2017-12-16 15:22:00,
2017-12-16 07:37:00,52.9,-46.0,29.93,North,5,3.0,9.0,1,0.00,,,0.00,33,weatherlink.com 1.10,2017-12-16 15:37:00,
2017-12-16 07:52:00,53.9,-45.0,29.93,North,5,3.0,8.0,1,0.00,,,0.00,54,weatherlink.com 1.10,2017-12-16 15:52:00,
2017-12-16 08:07:00,55.1,-45.0,29.94,North,5,1.0,6.0,1,0.00,,,0.00,91,weatherlink.com 1.10,2017-12-16 16:07:00,
2017-12-16 08:22:00,56.4,-44.0,29.94,North,5,2.0,13.0,1,0.00,,,0.00,139,weatherlink.com 1.10,2017-12-16 16:22:00,
2017-12-16 08:37:00,57.9,12.0,29.94,North,5,0.0,9.0,16,0.00,,,0.00,185,weatherlink.com 1.10,2017-12-16 16:37:00,
2017-12-16 08:53:00,58.8,26.0,29.95,North,5,2.0,8.0,29,0.00,,,0.00,229,weatherlink.com 1.10,2017-12-16 16:53:00,
2017-12-16 09:07:00,59.6,31.0,29.94,North,5,6.0,10.0,34,0.00,,,0.00,274,weatherlink.com 1.10,2017-12-16 17:07:00,
2017-12-16 09:22:00,60.4,35.0,29.94,North,5,4.0,11.0,39,0.00,,,0.00,308,weatherlink.com 1.10,2017-12-16 17:22:00,
2017-12-16 09:38:00,60.5,37.0,29.94,North,5,2.0,16.0,42,0.00,,,0.00,345,weatherlink.com 1.10,2017-12-16 17:38:00,
2017-12-16 09:52:00,60.9,39.0,29.94,North,5,2.0,13.0,45,0.00,,,0.00,371,weatherlink.com 1.10,2017-12-16 17:52:00,
2017-12-16 10:08:00,61.5,42.0,29.94,North,5,5.0,9.0,49,0.00,,,0.00,403,weatherlink.com 1.10,2017-12-16 18:08:00,
2017-12-16 10:23:00,62.8,42.0,29.94,North,5,8.0,13.0,47,0.00,,,0.00,429,weatherlink.com 1.10,2017-12-16 18:23:00,
2017-12-16 10:38:00,63.3,41.0,29.93,North,5,0.0,12.0,45,0.00,,,0.00,448,weatherlink.com 1.10,2017-12-16 18:38:00,
2017-12-16 10:54:00,63.4,41.0,29.92,North,5,3.0,13.0,44,0.00,,,0.00,471,weatherlink.com 1.10,2017-12-16 18:54:00,
2017-12-16 11:08:00,63.2,41.0,29.92,North,5,6.0,15.0,44,0.00,,,0.00,485,weatherlink.com 1.10,2017-12-16 19:08:00,
2017-12-16 11:23:00,63.8,42.0,29.91,North,5,1.0,12.0,45,0.00,,,0.00,492,weatherlink.com 1.10,2017-12-16 19:23:00,
2017-12-16 11:39:00,64.3,42.0,29.92,North,5,4.0,14.0,44,0.00,,,0.00,508,weatherlink.com 1.10,2017-12-16 19:39:00,
2017-12-16 11:53:00,64.2,42.0,29.93,North,5,4.0,18.0,45,0.00,,,0.00,508,weatherlink.com 1.10,2017-12-16 19:53:00,
2017-12-16 12:08:00,64.1,43.0,29.92,North,5,14.0,15.0,47,0.00,,,0.00,508,weatherlink.com 1.10,2017-12-16 20:08:00,
2017-12-16 12:25:00,64.0,45.0,29.91,North,5,6.0,13.0,50,0.00,,,0.00,503,weatherlink.com 1.10,2017-12-16 20:25:00,
2017-12-16 12:38:00,63.8,45.0,29.92,North,5,5.0,12.0,50,0.00,,,0.00,512,weatherlink.com 1.10,2017-12-16 20:38:00,
2017-12-16 12:54:00,63.7,45.0,29.91,North,5,1.0,13.0,50,0.00,,,0.00,499,weatherlink.com 1.10,2017-12-16 20:54:00,
2017-12-16 13:09:00,64.3,45.0,29.90,North,5,11.0,12.0,50,0.00,,,0.00,466,weatherlink.com 1.10,2017-12-16 21:09:00,
2017-12-16 13:24:00,63.8,45.0,29.90,North,5,4.0,16.0,50,0.00,,,0.00,466,weatherlink.com 1.10,2017-12-16 21:24:00,
2017-12-16 13:38:00,63.8,45.0,29.90,North,5,5.0,17.0,50,0.00,,,0.00,397,weatherlink.com 1.10,2017-12-16 21:38:00,
2017-12-16 13:55:00,64.3,45.0,29.89,North,5,3.0,10.0,49,0.00,,,0.00,381,weatherlink.com 1.10,2017-12-16 21:55:00,
2017-12-16 14:09:00,64.9,45.0,29.89,North,5,2.0,15.0,49,0.00,,,0.00,413,weatherlink.com 1.10,2017-12-16 22:09:00,
2017-12-16 14:25:00,63.2,44.0,29.89,North,5,2.0,13.0,50,0.00,,,0.00,301,weatherlink.com 1.10,2017-12-16 22:25:00,
2017-12-16 14:39:00,62.7,44.0,29.89,North,5,3.0,12.0,50,0.00,,,0.00,330,weatherlink.com 1.10,2017-12-16 22:39:00,
2017-12-16 14:54:00,62.9,44.0,29.88,North,5,2.0,13.0,50,0.00,,,0.00,299,weatherlink.com 1.10,2017-12-16 22:54:00,
2017-12-16 15:09:00,62.3,44.0,29.88,North,5,16.0,16.0,51,0.00,,,0.00,260,weatherlink.com 1.10,2017-12-16 23:09:00,
2017-12-16 15:25:00,62.0,43.0,29.88,North,5,1.0,16.0,51,0.00,,,0.00,211,weatherlink.com 1.10,2017-12-16 23:25:00,
2017-12-16 15:39:00,61.7,43.0,29.89,North,5,5.0,13.0,50,0.00,,,0.00,162,weatherlink.com 1.10,2017-12-16 23:39:00,
2017-12-16 15:54:00,61.4,42.0,29.90,North,5,2.0,11.0,49,0.00,,,0.00,114,weatherlink.com 1.10,2017-12-16 23:54:00,
2017-12-16 16:09:00,61.0,40.0,29.91,North,5,4.0,12.0,47,0.00,,,0.00,70,weatherlink.com 1.10,2017-12-17 00:09:00,
2017-12-16 16:24:00,60.1,39.0,29.92,North,5,1.0,10.0,45,0.00,,,0.00,39,weatherlink.com 1.10,2017-12-17 00:24:00,
2017-12-16 16:40:00,59.2,36.0,29.92,North,5,0.0,8.0,42,0.00,,,0.00,18,weatherlink.com 1.10,2017-12-17 00:40:00,
2017-12-16 16:55:00,58.3,28.0,29.92,North,5,0.0,6.0,32,0.00,,,0.00,0,weatherlink.com 1.10,2017-12-17 00:55:00,
2017-12-16 17:10:00,57.4,19.0,29.92,North,5,0.0,8.0,22,0.00,,,0.00,0,weatherlink.com 1.10,2017-12-17 01:10:00,
2017-12-16 17:25:00,56.6,9.0,29.92,North,5,0.0,6.0,15,0.00,,,0.00,0,weatherlink.com 1.10,2017-12-17 01:25:00,
2017-12-16 17:40:00,56.1,-5.0,29.93,North,5,0.0,13.0,8,0.00,,,0.00,0,weatherlink.com 1.10,2017-12-17 01:40:00,
2017-12-16 17:55:00,55.5,-1.0,29.93,North,360,1.0,11.0,10,0.00,,,0.00,0,weatherlink.com 1.10,2017-12-17 01:55:00,
2017-12-16 18:10:00,55.4,10.0,29.93,North,5,4.0,12.0,16,0.00,,,0.00,0,weatherlink.com 1.10,2017-12-17 02:10:00,
2017-12-16 18:25:00,55.6,19.0,29.92,North,5,4.0,11.0,24,0.00,,,0.00,0,weatherlink.com 1.10,2017-12-17 02:25:00,
2017-12-16 18:40:00,55.7,17.0,29.93,North,5,2.0,8.0,22,0.00,,,0.00,0,weatherlink.com 1.10,2017-12-17 02:40:00,
2017-12-16 18:55:00,55.6,17.0,29.94,North,360,1.0,8.0,22,0.00,,,0.00,0,weatherlink.com 1.10,2017-12-17 02:55:00,
2017-12-16 19:11:00,55.4,19.0,29.94,North,5,0.0,3.0,24,0.00,,,0.00,0,weatherlink.com 1.10,2017-12-17 03:11:00,
2017-12-16 19:26:00,55.0,6.0,29.93,North,5,0.0,3.0,14,0.00,,,0.00,0,weatherlink.com 1.10,2017-12-17 03:26:00,
2017-12-16 19:40:00,54.6,-4.0,29.94,North,5,2.0,8.0,9,0.00,,,0.00,0,weatherlink.com 1.10,2017-12-17 03:40:00,
2017-12-16 19:55:00,54.8,-25.0,29.94,North,5,0.0,5.0,3,0.00,,,0.00,0,weatherlink.com 1.10,2017-12-17 03:55:00,
2017-12-16 20:11:00,54.5,-20.0,29.95,North,5,0.0,6.0,4,0.00,,,0.00,0,weatherlink.com 1.10,2017-12-17 04:11:00,
2017-12-16 20:25:00,54.3,-9.0,29.94,North,360,0.0,10.0,7,0.00,,,0.00,0,weatherlink.com 1.10,2017-12-17 04:25:00,
2017-12-16 20:41:00,54.3,2.0,29.94,North,5,1.0,5.0,12,0.00,,,0.00,0,weatherlink.com 1.10,2017-12-17 04:41:00,
2017-12-16 20:56:00,54.0,10.0,29.95,North,5,0.0,2.0,17,0.00,,,0.00,0,weatherlink.com 1.10,2017-12-17 04:56:00,
2017-12-16 21:11:00,53.8,18.0,29.96,North,5,0.0,4.0,24,0.00,,,0.00,0,weatherlink.com 1.10,2017-12-17 05:11:00,
2017-12-16 21:26:00,53.9,0.0,29.95,North,5,1.0,4.0,11,0.00,,,0.00,0,weatherlink.com 1.10,2017-12-17 05:26:00,
2017-12-16 21:41:00,53.9,-7.0,29.95,North,5,0.0,6.0,8,0.00,,,0.00,0,weatherlink.com 1.10,2017-12-17 05:41:00,
2017-12-16 21:56:00,53.9,-16.0,29.95,North,5,0.0,4.0,5,0.00,,,0.00,0,weatherlink.com 1.10,2017-12-17 05:56:00,
2017-12-16 22:11:00,53.3,3.0,29.95,North,5,0.0,2.0,13,0.00,,,0.00,0,weatherlink.com 1.10,2017-12-17 06:11:00,
2017-12-16 22:27:00,52.3,23.0,29.96,North,5,2.0,4.0,32,0.00,,,0.00,0,weatherlink.com 1.10,2017-12-17 06:27:00,
2017-12-16 22:41:00,51.7,33.0,29.96,North,5,2.0,3.0,49,0.00,,,0.00,0,weatherlink.com 1.10,2017-12-17 06:41:00,
2017-12-16 22:56:00,51.6,34.0,29.96,North,5,0.0,3.0,51,0.00,,,0.00,0,weatherlink.com 1.10,2017-12-17 06:56:00,